Regional Weather Roundup
Issued by NWS

Home | Current Version | Previous Version | Text Only | Print | Product List | Glossary Off
Versions: 1 2 3 4 5 6 7 8 9 10 11 12 13 14 15 16 17 18 19 20 21 22 23 24 25 26 27 28 29 30 31 32 33 34 35 36 37 38 39 40 41 42 43 44 45 46 47 48 49 50

000
ASUS44 KMEG 071700
RWRTN
TENNESSEE HOURLY STATE WEATHER ROUNDUP
NATIONAL WEATHER SERVICE MEMPHIS TN
1100 AM CST SUN FEB 07 2016

TNZ002-004-019-021-049-052-054-088>092-071800-
WEST TENNESSEE

CITY           SKY/WX    TMP DP  RH WIND       PRES   REMARKS
MEMPHIS INTL   MOSUNNY   56  26  31 S12G23    30.18F
NWS MEMPHIS      N/A     53 N/A N/A MISG        N/A
JACKSON        SUNNY     53  26  35 SW9       30.17F
DYERSBURG      SUNNY     54  25  32 SW12G18   30.16F
PARIS          SUNNY     48  25  40 SW13      30.15F
$$

TNZ008-025-027-028-033-062-065-066-071800-
NORTH MIDDLE TENNESSEE

CITY           SKY/WX    TMP DP  RH WIND       PRES   REMARKS
NASHVILLE      MOSUNNY   52  20  28 SW6       30.16F
CLARKSVILLE    SUNNY     50  24  36 SW13      30.14F
CROSSVILLE     SUNNY     47  20  34 NW5       30.15F
$$

TNZ061-075-076-078-094-096-097-071800-
SOUTH MIDDLE TENNESSEE

CITY           SKY/WX    TMP DP  RH WIND       PRES   REMARKS
MCMINNVILLE    SUNNY     48  27  43 SW5       30.17F
SHELBYVILLE    SUNNY     50  28  43 CALM      30.18F
$$

TNZ017-018-042-046-047-071800-
NORTHEAST TENNESSEE

CITY           SKY/WX    TMP DP  RH WIND       PRES   REMARKS
TRI CITIES     MOSUNNY   44  24  45 W3        30.13F
$$

TNZ012-013-036-069-073-074-071800-
CENTRAL EAST TENNESSEE

CITY           SKY/WX    TMP DP  RH WIND       PRES   REMARKS
KNOXVILLE      SUNNY     46  23  40 CALM      30.17F
OAK RIDGE      SUNNY     49  23  36 VRB3      30.17F
$$

TNZ083-085-099-071800-
SOUTHEAST TENNESSEE

CITY           SKY/WX    TMP DP  RH WIND       PRES   REMARKS
CHATTANOOGA    MOSUNNY   50  22  33 VRB3      30.19F
$$

SKY/WX REPORTED AS FAIR MEANS FEW OR NO CLOUDS BELOW
12 THOUSAND FEET.




USA.gov is the U.S. government's official web portal to all federal, state and local government web resources and services.